Hourly Data Report for June 17, 2021

FISHER BRANCH (AUT)
MANITOBA
Current Station Operator: ECCC - MSC

51°05'00.100" N
97°33'16.200" W
253.00 m
50309J6
71442
WSZ

Download Data

Hourly Data (June 2021)
Hourly Data Report for June 17, 2021
TIME
LST
Temp Definition
°C
Dew Point Definition
°C
Rel Hum Definition
%
Precip. Amount Definition
mm

Wind Dir Definition
10's deg

Wind Spd Definition
km/h
Visibility Definition
km
Stn Press Definition
kPa
Hmdx Definition


Wind Chill Definition


Weather Definition


00:00 17.0 8.4 57 0.0 23 8   97.82     LegendNANA
01:00 16.6 8.4 59 0.0 23 13   97.81     LegendNANA
02:00 15.8 8.5 62 0.0 24 14   97.79     LegendNANA
03:00 14.6 8.2 65 0.0 25 10   97.77     LegendNANA
04:00 15.2 7.6 61 0.0 24 14   97.76     LegendNANA
05:00 15.3 7.0 58 0.0 24 14   97.78     LegendNANA
06:00 17.0 7.8 54 0.0 24 15   97.79     LegendNANA
07:00 19.6 8.1 47 0.0 25 15   97.78     LegendNANA
08:00 21.2 7.2 40 0.0 26 20   97.74     LegendNANA
09:00 22.9 6.5 35 0.0 28 17   97.70     LegendNANA
10:00 24.1 6.0 31 0.0 29 18   97.66     LegendNANA
11:00 24.9 4.7 27 0.0 28 21   97.62     LegendNANA
12:00 25.6 3.2 24 0.0 26 24   97.58     LegendNANA
13:00 26.2 1.9 21 0.0 26 31   97.52 25   LegendNANA
14:00 27.0 0.3 18 0.0 26 31   97.47 25   LegendNANA
15:00 26.8 2.1 20 0.0 27 29   97.42 25   LegendNANA
16:00 25.4 3.4 24 0.0 26 31   97.37     LegendNANA
17:00 25.7 2.6 22 0.0 27 25   97.34     LegendNANA
18:00 24.3 2.9 25 0.0 28 34   97.40     LegendNANA
19:00 23.0 4.5 30 0.0 29 29   97.45     LegendNANA
20:00 21.5 5.3 35 0.0 30 24   97.51     LegendNANA
21:00 20.5 6.2 39 0.0 30 23   97.57     LegendNANA
22:00 18.6 5.9 43 0.0 29 18   97.58     LegendNANA
23:00 16.6 6.1 50 0.0 29 14   97.58     LegendNANA

Notes on Data Quality.

Legend

  • E = Estimated
  • M = Missing
  • NA = Not Available*
  • [empty] = Indicates an unobserved value
Date modified: